Galena, AK

2:23 AM AKDT on March 25, 2017 (GMT -0800)
Pitka

Weather History for PAGA - February, 2013

Change the Weather History Date:

Saturday, February 2, 2013

  Actual Average Record
Temperature  
Mean Temperature 8 °F -  
Max Temperature 16 °F -1 °F 33 °F (2000)
Min Temperature 0 °F -17 °F -56 °F (1999)
Degree Days  
Heating Degree Days 57    
Moisture  
Dew Point 7 °F    
Average Humidity 87    
Maximum Humidity 96    
Minimum Humidity 79    
Precipitation  
Precipitation 0.00 in - - ()
Sea Level Pressure  
Sea Level Pressure 29.68 in    
Wind  
Wind Speed 5 mph (NE)    
Max Wind Speed 20 mph    
Max Gust Speed 25 mph    
Visibility 8 miles    
Events Snow    
Averages and records for this station are not official NWS values.
T = Trace of Precipitation, MM = Missing Value Source: NWS Daily Summary

Daily Weather History Graph

Daily Weather History Graph

Search for Another Location

Airport or City:

Trip Planner

Search our weather history database for the weather conditions in past years. The results will help you decide how hot, cold, wet, or windy it might be!

Date:

Astronomy

Feb. 02, 2013 Rise Set
Actual Time 10:07 AM AKST 5:16 PM AKST
Civil Twilight 9:09 AM AKST 6:14 PM AKST
Nautical Twilight 8:10 AM AKST 7:14 PM AKST
Astronomical Twilight 7:13 AM AKST 8:11 PM AKST
Moon 2:24 AM AKST (2/2) 10:27 AM AKST (2/2)
Length of Visible Light 9h 04m
Length of Day
7h 08m
Waning Gibbous, 58% of the Moon is Illuminated
Feb 2
Waning Gibbous
Feb 3
Last Quarter
Feb 9
New
Feb 17
First Quarter
Feb 25
Full

Hourly Weather History & Observations

Time (AKST) Temp. Windchill Dew Point Humidity Pressure Visibility Wind Dir Wind Speed Gust Speed Precip Events Conditions
12:58 AM -0.0 °F - -4.0 °F 83% 29.89 in 10.0 mi Calm Calm - N/A   Clear
1:58 AM 1.0 °F -11.7 °F -2.0 °F 87% 29.83 in 10.0 mi North 6.9 mph - N/A   Clear
2:58 AM 1.0 °F -6.7 °F -2.0 °F 87% 29.82 in 10.0 mi NNW 3.5 mph - N/A   Clear
3:58 AM 1.0 °F - -2.0 °F 87% 29.79 in 10.0 mi Calm Calm - N/A   Clear
4:58 AM 1.9 °F -5.6 °F -2.0 °F 83% 29.78 in 10.0 mi NNW 3.5 mph - N/A   Clear
5:58 AM 1.9 °F -7.6 °F -0.9 °F 88% 29.76 in 10.0 mi North 4.6 mph - N/A   Clear
6:58 AM 3.9 °F - 1.0 °F 88% 29.74 in 10.0 mi Calm Calm - N/A   Partly Cloudy
7:58 AM 5.0 °F -6.9 °F 1.9 °F 87% 29.71 in 10.0 mi North 6.9 mph - N/A   Clear
8:58 AM 6.1 °F -2.8 °F 3.9 °F 91% 29.70 in 10.0 mi Variable 4.6 mph - N/A   Overcast
9:58 AM 8.1 °F - 5.0 °F 87% 29.70 in 10.0 mi Calm Calm - N/A   Overcast
10:17 AM 8.6 °F - 5.0 °F 85% 29.68 in 3.0 mi Calm Calm - 0.00 in Snow Light Snow
10:36 AM 8.6 °F 2.0 °F 6.8 °F 92% 29.68 in 3.0 mi NNE 3.5 mph - 0.00 in Snow Light Snow
10:46 AM 8.6 °F 2.0 °F 6.8 °F 92% 29.68 in 2.0 mi NNE 3.5 mph - 0.00 in Snow Light Snow
10:50 AM 8.6 °F - 6.8 °F 92% 29.68 in 1.5 mi Calm Calm - 0.00 in Snow Light Snow
10:58 AM 9.0 °F - 7.0 °F 92% 29.70 in 1.2 mi Calm Calm - 0.00 in Snow Light Snow
11:18 AM 10.4 °F 4.0 °F 6.8 °F 85% 29.68 in 2.0 mi NNE 3.5 mph - 0.00 in Snow Light Snow
11:30 AM 10.4 °F - 8.6 °F 92% 29.68 in 3.0 mi Calm Calm - 0.00 in Snow Light Snow
11:58 AM 12.9 °F -2.8 °F 12.0 °F 96% 29.69 in 8.0 mi East 15.0 mph - 0.00 in Snow Light Snow
12:58 PM 16.0 °F 1.7 °F 12.0 °F 84% 29.68 in 9.0 mi East 13.8 mph - 0.00 in Snow Light Snow
1:58 PM 16.0 °F -0.9 °F 10.9 °F 81% 29.67 in 9.0 mi East 19.6 mph - 0.00 in Snow Light Snow
2:43 PM 15.8 °F -0.2 °F 10.4 °F 79% 29.64 in 10.0 mi East 17.3 mph - 0.00 in   Overcast
2:58 PM 16.0 °F 1.1 °F 10.9 °F 81% 29.66 in 10.0 mi East 15.0 mph - 0.00 in   Overcast
3:29 PM 15.8 °F -1.1 °F 10.4 °F 79% 29.62 in 2.5 mi East 19.6 mph 25.3 mph 0.00 in Snow Light Snow
3:36 PM 15.8 °F -0.6 °F 12.2 °F 86% 29.62 in 4.0 mi East 18.4 mph 25.3 mph 0.00 in Snow Light Snow
3:58 PM 16.0 °F 0.1 °F 12.0 °F 84% 29.64 in 6.0 mi East 17.3 mph 24.2 mph 0.00 in Snow Light Snow
4:10 PM 15.8 °F -0.6 °F 12.2 °F 86% 29.62 in 5.0 mi East 18.4 mph 21.9 mph 0.00 in Snow Light Snow
4:58 PM 16.0 °F 7.4 °F 12.9 °F 88% 29.63 in 10.0 mi NE 5.8 mph - 0.00 in   Overcast
5:10 PM 15.8 °F 8.6 °F 12.2 °F 86% 29.61 in 10.0 mi NNE 4.6 mph - 0.00 in Snow Light Snow
5:58 PM 15.1 °F 9.4 °F 12.0 °F 88% 29.63 in 10.0 mi North 3.5 mph - 0.00 in   Overcast
6:58 PM 15.1 °F 6.4 °F 12.0 °F 88% 29.62 in 8.0 mi North 5.8 mph - 0.00 in Snow Light Snow
7:58 PM 15.1 °F 9.4 °F 12.0 °F 88% 29.62 in 10.0 mi NNE 3.5 mph - 0.00 in   Overcast
8:58 PM 15.1 °F 7.7 °F 12.0 °F 88% 29.60 in 10.0 mi North 4.6 mph - N/A   Overcast
9:52 PM 14.0 °F 6.5 °F 12.2 °F 93% 29.58 in 10.0 mi North 4.6 mph - N/A   Overcast
9:58 PM 14.0 °F 5.1 °F 12.0 °F 92% 29.60 in 10.0 mi North 5.8 mph - N/A   Overcast
10:58 PM 12.9 °F 3.8 °F 10.9 °F 92% 29.60 in 10.0 mi North 5.8 mph - N/A   Mostly Cloudy
11:58 PM 12.9 °F 6.9 °F 10.9 °F 92% 29.60 in 10.0 mi Variable 3.5 mph - 0.00 in Snow Light Snow